McAlester, OK

1:29 PM CST on February 26, 2017 (GMT -0600)
McAlester Regional

Weather History for KMLC - December, 2013

Change the Weather History Date:

Tuesday, December 3, 2013

  Actual Average Record
Temperature  
Mean Temperature 55 °F -  
Max Temperature 69 °F 55 °F 78 °F (1970)
Min Temperature 41 °F 31 °F 19 °F (2006)
Degree Days  
Heating Degree Days 10    
Growing Degree Days 5 (Base 50)    
Moisture  
Dew Point 47 °F    
Average Humidity 88    
Maximum Humidity 100    
Minimum Humidity 45    
Precipitation  
Precipitation 0.01 in - - ()
Sea Level Pressure  
Sea Level Pressure 29.59 in    
Wind  
Wind Speed 2 mph (South)    
Max Wind Speed 12 mph    
Max Gust Speed 17 mph    
Visibility 5 miles    
Events Fog    
Averages and records for this station are not official NWS values.
T = Trace of Precipitation, MM = Missing Value Source: NWS Daily Summary

Daily Weather History Graph

Daily Weather History Graph

Search for Another Location

Airport or City:

Trip Planner

Search our weather history database for the weather conditions in past years. The results will help you decide how hot, cold, wet, or windy it might be!

Date:

Astronomy

Dec. 03, 2013 Rise Set
Actual Time 7:14 AM CST 5:11 PM CST
Civil Twilight 6:46 AM CST 5:39 PM CST
Nautical Twilight 6:15 AM CST 6:10 PM CST
Astronomical Twilight 5:44 AM CST 6:41 PM CST
Moon 7:45 AM CST (12/3) 6:15 PM CST (12/3)
Length of Visible Light 10h 52m
Length of Day
9h 57m
New Moon, 1% of the Moon is Illuminated
Dec 3
New Moon
Dec 9
First Quarter
Dec 17
Full
Dec 25
Last Quarter
Jan 1
New

Hourly Weather History & Observations

Time (CST) Temp. Windchill Dew Point Humidity Pressure Visibility Wind Dir Wind Speed Gust Speed Precip Events Conditions
12:53 AM 46.9 °F - 46.9 °F 100% 29.66 in 0.2 mi Calm Calm - N/A Fog Fog
1:53 AM 46.9 °F - 46.0 °F 97% 29.65 in 0.2 mi South 3.5 mph - N/A Fog Fog
2:53 AM 46.9 °F - 46.9 °F 100% 29.65 in 0.2 mi Calm Calm - N/A Fog Fog
3:53 AM 46.9 °F - 46.9 °F 100% 29.62 in 0.2 mi SSW 3.5 mph - N/A Fog Fog
4:53 AM 46.9 °F - 46.0 °F 97% 29.60 in 0.2 mi Calm Calm - 0.01 in Fog Fog
5:53 AM 46.0 °F - 45.0 °F 96% 29.60 in 0.2 mi Calm Calm - N/A Fog Fog
6:53 AM 44.1 °F - 43.0 °F 96% 29.62 in 0.2 mi Calm Calm - N/A Fog Fog
7:53 AM 41.0 °F - 41.0 °F 100% 29.63 in 0.2 mi Calm Calm - N/A Fog Fog
8:53 AM 46.0 °F 44.8 °F 46.0 °F 100% 29.62 in 0.2 mi Variable 3.5 mph - N/A Fog Fog
9:27 AM 46.4 °F - 46.4 °F 100% 29.63 in 1.0 mi Calm Calm - N/A   Overcast
9:44 AM 50.0 °F - 48.2 °F 94% 29.62 in 2.0 mi SE 4.6 mph - N/A   Mostly Cloudy
9:51 AM 50.0 °F - 48.2 °F 94% 29.63 in 5.0 mi Variable 4.6 mph - N/A   Scattered Clouds
9:52 AM 50.0 °F - 48.9 °F 96% 29.62 in 5.0 mi Variable 3.5 mph - N/A   Scattered Clouds
10:53 AM 57.9 °F - 52.0 °F 81% 29.60 in 10.0 mi ESE 5.8 mph - N/A   Partly Cloudy
11:53 AM 64.9 °F - 52.0 °F 63% 29.57 in 10.0 mi Variable 4.6 mph - N/A   Partly Cloudy
12:53 PM 69.1 °F - 46.9 °F 45% 29.52 in 10.0 mi Variable 5.8 mph - N/A   Clear
1:53 PM 69.1 °F - 48.9 °F 49% 29.50 in 10.0 mi South 11.5 mph - N/A   Clear
2:53 PM 64.9 °F - 52.0 °F 63% 29.50 in 10.0 mi South 10.4 mph 17.3 mph N/A   Mostly Cloudy
3:53 PM 57.9 °F - 51.1 °F 78% 29.53 in 10.0 mi South 9.2 mph - N/A   Partly Cloudy
4:15 PM 57.2 °F - 51.8 °F 82% 29.55 in 10.0 mi South 6.9 mph - N/A   Mostly Cloudy
4:53 PM 55.0 °F - 48.9 °F 80% 29.56 in 10.0 mi South 8.1 mph - N/A   Mostly Cloudy
5:41 PM 51.8 °F - 46.4 °F 82% 29.58 in 10.0 mi South 6.9 mph - N/A   Partly Cloudy
5:53 PM 51.1 °F - 46.9 °F 86% 29.58 in 10.0 mi South 4.6 mph - N/A   Partly Cloudy
6:53 PM 46.0 °F - 44.1 °F 93% 29.59 in 8.0 mi Calm Calm - N/A   Clear
7:53 PM 43.0 °F - 42.1 °F 97% 29.60 in 6.0 mi Calm Calm - N/A   Partly Cloudy
8:53 PM 46.9 °F - 45.0 °F 93% 29.59 in 7.0 mi Calm Calm - N/A   Scattered Clouds
9:53 PM 46.9 °F - 45.0 °F 93% 29.58 in 7.0 mi Calm Calm - N/A   Mostly Cloudy
10:53 PM 45.0 °F - 44.1 °F 97% 29.57 in 4.0 mi Calm Calm - N/A   Mostly Cloudy
11:04 PM 42.8 °F - 42.8 °F 100% 29.58 in 1.8 mi Calm Calm - N/A   Mostly Cloudy
11:14 PM 46.4 °F - 44.6 °F 93% 29.59 in 3.0 mi Calm Calm - N/A   Scattered Clouds
11:53 PM 41.0 °F - 39.9 °F 96% 29.57 in 4.0 mi Calm Calm - N/A   Clear